Location: Newark
(45.4422°N, 16.2769°E)
Time: 22:45:02
(UTC+00:00)

Courier 1B - Pass Details

Date: 16 December 2019
Orbit: 962 x 1209 km, 28.3° (Epoch: 21 January)

Event Time Altitude Azimuth Distance (km) Brightness Sun altitude
Rises 18:23:40 0° 227° (SW) 3,757 11.2 -32.5°
Reaches altitude 10° 18:27:17 10° 209° (SSW) 2,852 10.2 -33.1°
Enters shadow 18:30:24 17° 182° (S) 2,426 9.5 -33.7°
Maximum altitude 18:31:38 18° 170° (S) 2,397 - -33.9°
Drops below altitude 10° 18:36:08 10° 131° (SE) 2,971 - -34.7°
Sets 18:40:01 0° 113° (ESE) 3,981 - -35.3°
